• în România
  • Lista ţărilor
  • Pe 7 zile
  • Temperatura apei
  • Hartă satelitară
  • Meteo pe hartă
  • Widget-uri
  • user-avatar
    Intrare

    Meteo pe oră la Algiers

    Astăzi, 26 Martie, Duminică

    Timp Temperatura Precipitaţii Vânt Presiune Umiditate
    00:00 +11°C° 0 mm 4 m/s 751 mmHg 48%
    01:00 +11°C° 0 mm 4 m/s 750 mmHg 44%
    02:00 +11°C° 0 mm 4 m/s 750 mmHg 41%
    03:00 +11°C° 0 mm 4 m/s 749 mmHg 38%
    04:00 +11°C° 0 mm 4 m/s 749 mmHg 39%
    05:00 +11°C° 0 mm 4 m/s 749 mmHg 40%
    06:00 +10°C° 0 mm 4 m/s 749 mmHg 44%
    07:00 +13°C° 0 mm 3 m/s 749 mmHg 44%
    08:00 +17°C° 0 mm 3 m/s 749 mmHg 44%
    09:00 +19°C° 0 mm 3 m/s 749 mmHg 43%
    10:00 +21°C° 0 mm 2 m/s 749 mmHg 39%
    11:00 +24°C° 0 mm 2 m/s 749 mmHg 34%
    12:00 +25°C° 0 mm 2 m/s 749 mmHg 29%
    13:00 +25°C° 0 mm 2 m/s 749 mmHg 31%
    14:00 +25°C° 0 mm 3 m/s 748 mmHg 33%
    15:00 +26°C° 0 mm 4 m/s 748 mmHg 34%
    16:00 +22°C° 0 mm 4 m/s 747 mmHg 45%
    17:00 +19°C° 0 mm 4 m/s 747 mmHg 56%
    18:00 +15°C° 0 mm 5 m/s 747 mmHg 67%
    19:00 +15°C° 0 mm 5 m/s 747 mmHg 58%
    20:00 +15°C° 0 mm 5 m/s 747 mmHg 49%
    21:00 +15°C° 0 mm 5 m/s 748 mmHg 41%
    22:00 +15°C° 0 mm 5 m/s 748 mmHg 39%
    23:00 +14°C° 0 mm 5 m/s 747 mmHg 37%

    Mâine, 27 Martie, Luni

    Timp Temperatura Precipitaţii Vânt Presiune Umiditate
    00:00 +14°C° 0 mm 5 m/s 747 mmHg 35%
    01:00 +14°C° 0 mm 5 m/s 747 mmHg 36%
    02:00 +14°C° 0 mm 5 m/s 747 mmHg 37%
    03:00 +14°C° 0 mm 5 m/s 747 mmHg 38%
    04:00 +14°C° 0 mm 5 m/s 747 mmHg 41%
    05:00 +13°C° 0 mm 6 m/s 748 mmHg 43%
    06:00 +13°C° 0 mm 6 m/s 748 mmHg 46%
    07:00 +15°C° 0 mm 6 m/s 749 mmHg 45%
    08:00 +17°C° 0 mm 6 m/s 750 mmHg 45%
    09:00 +20°C° 0 mm 6 m/s 751 mmHg 45%
    10:00 +21°C° 0 mm 7 m/s 751 mmHg 46%
    11:00 +21°C° 0 mm 7 m/s 751 mmHg 48%
    12:00 +21°C° 0 mm 7 m/s 752 mmHg 50%
    13:00 +21°C° 0 mm 7 m/s 752 mmHg 55%
    14:00 +20°C° 0 mm 7 m/s 752 mmHg 60%
    15:00 +20°C° 0 mm 7 m/s 752 mmHg 65%
    16:00 +17°C° 0 mm 6 m/s 752 mmHg 73%
    17:00 +15°C° 0 mm 5 m/s 752 mmHg 81%
    18:00 +14°C° 0 mm 4 m/s 752 mmHg 90%
    19:00 +12°C° 0 mm 4 m/s 753 mmHg 91%
    20:00 +11°C° 0 mm 3 m/s 753 mmHg 93%
    21:00 +10°C° 0 mm 3 m/s 754 mmHg 95%
    22:00 +10°C° 0 mm 3 m/s 754 mmHg 95%
    23:00 +9°C° 0 mm 3 m/s 754 mmHg 94%

    Poimâine, 28 Martie, Marţi

    Timp Temperatura Precipitaţii Vânt Presiune Umiditate
    00:00 +9°C° 0 mm 3 m/s 754 mmHg 94%
    01:00 +9°C° 0 mm 3 m/s 754 mmHg 94%
    02:00 +8°C° 0 mm 2 m/s 754 mmHg 93%
    03:00 +8°C° 0 mm 2 m/s 754 mmHg 93%
    04:00 +8°C° 0 mm 2 m/s 754 mmHg 93%
    05:00 +8°C° 0 mm 2 m/s 754 mmHg 93%
    06:00 +8°C° 0 mm 2 m/s 754 mmHg 92%
    07:00 +12°C° 0 mm 2 m/s 755 mmHg 82%
    08:00 +14°C° 0 mm 2 m/s 755 mmHg 72%
    09:00 +17°C° 0 mm 3 m/s 755 mmHg 63%
    10:00 +18°C° 0 mm 3 m/s 755 mmHg 61%
    11:00 +19°C° 0 mm 3 m/s 755 mmHg 59%
    12:00 +20°C° 0 mm 4 m/s 755 mmHg 57%
    13:00 +19°C° 0 mm 4 m/s 755 mmHg 59%
    14:00 +19°C° 0 mm 4 m/s 755 mmHg 61%
    15:00 +19°C° 0 mm 3 m/s 754 mmHg 63%
    16:00 +17°C° 0 mm 3 m/s 755 mmHg 72%
    17:00 +15°C° 0 mm 2 m/s 755 mmHg 82%
    18:00 +13°C° 0 mm 2 m/s 755 mmHg 91%
    19:00 +13°C° 0 mm 1 m/s 756 mmHg 93%
    20:00 +12°C° 0 mm 1 m/s 756 mmHg 95%
    21:00 +10°C° 0 mm 0 m/s 757 mmHg 96%
    22:00 +9°C° 0 mm 0 m/s 757 mmHg 97%
    23:00 +8°C° 0 mm 0 m/s 757 mmHg 97%

    29 Martie, Miercuri

    Timp Temperatura Precipitaţii Vânt Presiune Umiditate
    00:00 +8°C° 0 mm 0 m/s 756 mmHg 97%
    01:00 +7°C° 0 mm 0 m/s 756 mmHg 97%
    02:00 +7°C° 0 mm 0 m/s 756 mmHg 96%
    03:00 +7°C° 0 mm 0 m/s 756 mmHg 96%
    04:00 +7°C° 0 mm 0 m/s 756 mmHg 95%
    05:00 +7°C° 0 mm 0 m/s 756 mmHg 95%
    06:00 +8°C° 0 mm 1 m/s 756 mmHg 94%
    07:00 +11°C° 0 mm 1 m/s 757 mmHg 83%
    08:00 +14°C° 0 mm 1 m/s 757 mmHg 73%
    09:00 +18°C° 0 mm 1 m/s 757 mmHg 62%
    10:00 +19°C° 0 mm 1 m/s 757 mmHg 57%
    11:00 +20°C° 0 mm 1 m/s 756 mmHg 52%
    12:00 +20°C° 0 mm 2 m/s 756 mmHg 47%
    13:00 +19°C° 0 mm 2 m/s 756 mmHg 50%
    14:00 +19°C° 0 mm 3 m/s 755 mmHg 53%
    15:00 +19°C° 0 mm 3 m/s 755 mmHg 56%
    16:00 +17°C° 0 mm 3 m/s 755 mmHg 66%
    17:00 +14°C° 0 mm 3 m/s 755 mmHg 76%
    18:00 +12°C° 0 mm 3 m/s 755 mmHg 86%
    19:00 +11°C° 0 mm 3 m/s 756 mmHg 87%
    20:00 +9°C° 0 mm 3 m/s 756 mmHg 88%
    21:00 +8°C° 0 mm 3 m/s 757 mmHg 89%
    22:00 +8°C° 0 mm 2 m/s 756 mmHg 86%
    23:00 +8°C° 0 mm 2 m/s 756 mmHg 84%

    30 Martie, Joi

    Timp Temperatura Precipitaţii Vânt Presiune Umiditate
    00:00 +7°C° 0 mm 2 m/s 756 mmHg 81%
    01:00 +7°C° 0 mm 2 m/s 756 mmHg 79%
    02:00 +7°C° 0 mm 2 m/s 756 mmHg 76%
    03:00 +7°C° 0 mm 3 m/s 755 mmHg 74%
    04:00 +7°C° 0 mm 3 m/s 755 mmHg 68%
    05:00 +7°C° 0 mm 3 m/s 755 mmHg 62%
    06:00 +7°C° 0 mm 3 m/s 756 mmHg 56%
    07:00 +11°C° 0 mm 3 m/s 756 mmHg 50%
    08:00 +16°C° 0 mm 3 m/s 756 mmHg 43%
    09:00 +19°C° 0 mm 3 m/s 756 mmHg 36%
    10:00 +21°C° 0 mm 3 m/s 756 mmHg 34%
    11:00 +22°C° 0 mm 3 m/s 756 mmHg 31%
    12:00 +25°C° 0 mm 3 m/s 755 mmHg 29%
    13:00 +25°C° 0 mm 4 m/s 755 mmHg 31%
    14:00 +25°C° 0 mm 4 m/s 754 mmHg 34%
    15:00 +25°C° 0 mm 5 m/s 754 mmHg 36%
    16:00 +21°C° 0 mm 5 m/s 754 mmHg 48%
    17:00 +17°C° 0 mm 5 m/s 754 mmHg 60%
    18:00 +14°C° 0 mm 4 m/s 753 mmHg 72%
    19:00 +14°C° 0 mm 4 m/s 754 mmHg 65%
    20:00 +13°C° 0 mm 4 m/s 754 mmHg 58%
    21:00 +13°C° 0 mm 4 m/s 754 mmHg 50%
    22:00 +13°C° 0 mm 4 m/s 754 mmHg 47%
    23:00 +13°C° 0 mm 4 m/s 753 mmHg 44%

    31 Martie, Vineri

    Timp Temperatura Precipitaţii Vânt Presiune Umiditate
    00:00 +14°C° 0 mm 4 m/s 753 mmHg 41%
    01:00 +14°C° 0 mm 4 m/s 753 mmHg 44%
    02:00 +13°C° 0 mm 3 m/s 753 mmHg 48%
    03:00 +13°C° 0 mm 3 m/s 752 mmHg 51%
    04:00 +13°C° 0 mm 4 m/s 752 mmHg 52%
    05:00 +13°C° 0 mm 4 m/s 752 mmHg 53%
    06:00 +13°C° 0 mm 4 m/s 752 mmHg 54%
    07:00 +15°C° 0 mm 4 m/s 753 mmHg 51%
    08:00 +19°C° 0 mm 4 m/s 753 mmHg 49%
    09:00 +22°C° 0 mm 4 m/s 753 mmHg 46%
    10:00 +23°C° 0 mm 4 m/s 753 mmHg 42%
    11:00 +25°C° 0 mm 4 m/s 753 mmHg 38%
    12:00 +27°C° 0 mm 4 m/s 752 mmHg 34%
    13:00 +26°C° 0 mm 4 m/s 752 mmHg 40%
    14:00 +25°C° 0 mm 4 m/s 752 mmHg 45%
    15:00 +23°C° 0 mm 5 m/s 751 mmHg 50%
    16:00 +21°C° 0 mm 4 m/s 751 mmHg 61%
    17:00 +19°C° 0 mm 3 m/s 751 mmHg 72%
    18:00 +16°C° 0 mm 3 m/s 751 mmHg 83%
    19:00 +16°C° 0 mm 3 m/s 751 mmHg 82%
    20:00 +14°C° 0 mm 3 m/s 752 mmHg 82%
    21:00 +14°C° 0 mm 3 m/s 752 mmHg 81%
    22:00 +14°C° 0 mm 3 m/s 752 mmHg 79%
    23:00 +13°C° 0 mm 3 m/s 751 mmHg 77%
    Arată mai mult